Orbital Elements at Epoch 2459200.5 (2020-Dec-17.0) TDB
Reference: JPL 30 (heliocentric ecliptic J2000)
Element | Value | Uncertainty (1-sigma) | Units |
e | .1069859552618976 | 3.6878e-08 | |
a | 2.675315916374465 | 1.3959e-08 | au |
q | 2.389094687433784 | 1.0487e-07 | au |
i | 13.27081222774613 | 3.669e-06 | deg |
node | 146.4843271822394 | 1.9047e-05 | deg |
peri | 344.8292396670868 | 2.8874e-05 | deg |
M | 284.5219963145314 | 2.3221e-05 | deg |
tp | 2459535.603482434452 (2021-Nov-17.10348243) | 0.0001043 | TDB |
period | 1598.310074271722 4.38 | 1.2509e-05 3.425e-08 | d yr |
n | .2252378970732797 | 1.7628e-09 | deg/d |
Q | 2.961537145315146 | 1.5452e-08 | au |
|
| | Orbit Determination Parameters
Additional Information
|